TimeMDT,TemperatureF,Dew PointF,Humidity,Sea Level PressureIn,VisibilityMPH,Wind Direction,Wind SpeedMPH,Gust SpeedMPH,PrecipitationIn,Events,Conditions,WindDirDegrees,DateUTC
12:53 AM,53.1,28.9,40,29.91,10.0,NNE,6.9,-,N/A,,Clear,30,2012-10-11 06:53:00
1:53 AM,53.1,30.0,41,29.90,10.0,North,6.9,-,N/A,,Clear,360,2012-10-11 07:53:00
2:53 AM,48.9,28.9,46,29.91,10.0,Calm,Calm,-,N/A,,Clear,0,2012-10-11 08:53:00
3:53 AM,46.9,28.0,48,29.92,10.0,NNE,4.6,-,N/A,,Clear,20,2012-10-11 09:53:00
4:53 AM,48.0,28.0,46,29.91,10.0,ENE,3.5,-,N/A,,Clear,60,2012-10-11 10:53:00
5:53 AM,46.9,28.0,48,29.94,10.0,North,4.6,-,N/A,,Clear,10,2012-10-11 11:53:00
6:53 AM,48.0,28.0,46,29.95,10.0,Calm,Calm,-,N/A,,Clear,0,2012-10-11 12:53:00
7:53 AM,51.1,28.9,43,29.95,10.0,Calm,Calm,-,N/A,,Clear,0,2012-10-11 13:53:00
8:53 AM,55.9,30.9,39,29.96,10.0,Calm,Calm,-,N/A,,Clear,0,2012-10-11 14:53:00
9:53 AM,55.9,30.0,37,30.01,10.0,Calm,Calm,-,N/A,,Clear,0,2012-10-11 15:53:00
10:53 AM,59.0,30.0,33,30.00,10.0,SSE,3.5,-,N/A,,Clear,150,2012-10-11 16:53:00
11:53 AM,66.0,28.0,24,29.96,10.0,SE,6.9,-,N/A,,Clear,130,2012-10-11 17:53:00
12:53 PM,68.0,28.0,22,29.95,10.0,Variable,5.8,-,N/A,,Clear,0,2012-10-11 18:53:00
1:53 PM,69.1,28.9,22,29.93,10.0,South,8.1,-,N/A,,Clear,170,2012-10-11 19:53:00
2:53 PM,71.1,28.9,21,29.93,10.0,South,6.9,-,N/A,,Clear,170,2012-10-11 20:53:00
3:53 PM,69.8,28.4,21,30.07,10.0,SSE,10.4,-,N/A,,Clear,150,2012-10-11 21:53:00
4:53 PM,66.2,28.4,24,30.07,10.0,SE,9.2,-,N/A,,Mostly Cloudy,130,2012-10-11 22:53:00
5:53 PM,66.9,28.0,23,29.95,10.0,SE,5.8,-,N/A,,Overcast,140,2012-10-11 23:53:00
6:53 PM,64.0,28.0,26,29.94,10.0,Calm,Calm,-,N/A,,Mostly Cloudy,0,2012-10-12 00:53:00
7:53 PM,59.0,27.0,29,29.96,10.0,Calm,Calm,-,N/A,,Partly Cloudy,0,2012-10-12 01:53:00
8:53 PM,52.0,26.1,37,29.97,10.0,NNE,9.2,-,N/A,,Clear,30,2012-10-12 02:53:00
9:53 PM,51.1,27.0,39,29.98,10.0,NNE,10.4,-,N/A,,Clear,20,2012-10-12 03:53:00
10:53 PM,52.0,27.0,38,29.95,10.0,NNE,10.4,-,N/A,,Clear,20,2012-10-12 04:53:00
11:53 PM,50.0,26.6,40,30.05,10.0,NNE,5.8,-,N/A,,Scattered Clouds,20,2012-10-12 05:53:00